Location: Corcelles
(46.1547°N, 4.7234°E)
Time: 21:07:18
(UTC+00:00)

Meteor 1-20 Rocket - Pass Details

Date: 14 July 2020
Orbit: 820 x 891 km, 81.2° (Epoch: 14 August)

Event Time Altitude Azimuth Distance (km) Brightness Sun altitude
Exits shadow 00:58:15 39° 213° (SSW) 1,252 4.6 -20.3°
Maximum altitude 01:00:20 68° 283° (WNW) 916 4.3 -20.2°
Drops below altitude 10° 01:06:01 10° 6° (N) 2,513 7.8 -19.9°
Sets 01:08:30 0° 10° (N) 3,465 8.9 -19.7°
